Weather Roundup
Issued by NWS Corpus Christi, TX

Home | Current Version | Previous Version | Text Only | Print | Product List | Glossary On
Versions: 1 2 3 4 5 6 7 8 9 10 11 12 13 14 15 16 17 18 19 20 21 22 23 24 25 26 27 28 29 30 31 32 33 34 35 36 37 38 39 40 41 42 43 44 45 46 47 48 49 50
000
ASUS44 KCRP 250910
HRRCRP

SOUTH TEXAS REGIONAL WEATHER ROUNDUP
NATIONAL WEATHER SERVICE CORPUS CHRISTI TX
400 AM CDT WED MAY 25 2016


TXZ229>244-251000-
...CORPUS CHRISTI AREA OBSERVATIONS...

CITY           SKY/WX    TMP DP  RH WIND       PRES   REMARKS
CORPUS CHRISTI CLOUDY    80  77  90 SE8       29.92F
NAS CORPUS CHR CLOUDY    82  80  94 S13G20    29.92S HX  94
ROCKPORT       CLOUDY    81  76  84 SE8G17    29.93F
KINGSVILLE NAS CLOUDY    79  79 100 SE6       29.92S
ALICE          CLOUDY    77  76  96 E7        29.92S FOG
FALFURRIAS     CLOUDY    79  76  90 E3        29.91S
$$

...VICTORIA AREA OBSERVATIONS...

CITY           SKY/WX    TMP DP  RH WIND       PRES   REMARKS
VICTORIA       CLOUDY    78  76  93 SE7       29.95F FOG
BEEVILLE       CLOUDY    70  70 100 E3        29.94F FOG
PLEASANTON     CLOUDY    76  74  92 E6        29.94S
SAN ANTONIO    CLOUDY    77  73  87 S13       29.96S
$$

...LAREDO AREA OBSERVATIONS...

CITY           SKY/WX    TMP DP  RH WIND       PRES   REMARKS
LAREDO         CLOUDY    80  76  87 SE9       29.90S
COTULLA        MOCLDY    79  75  87 SE10      29.92S
DEL RIO        CLOUDY    78  76  93 SE8       29.90S
MCALLEN        CLOUDY    82  78  88 SE9       29.89F HX  91
HEBBRONVILLE   CLOUDY    79  75  90 SE7       29.93R
$$

...OTHER TEXAS OBSERVATIONS...

CITY           SKY/WX    TMP DP  RH WIND       PRES   REMARKS
BROWNSVILLE    CLOUDY    81  78  91 SE14      29.91F
HOUSTON        MOCLDY    77  75  93 SE8       29.98S
COL. STATION   CLOUDY    78  75  90 SE13      29.96S
AUSTIN         MOCLDY    75  74  96 S8        29.94F
WACO           CLOUDY    76  71  85 S10       29.94F
FORT WORTH     CLOUDY    78  70  76 S17G23    29.92S
WICHITA FALLS  CLEAR     75  72  90 S16       29.84S
LUBBOCK        PTCLDY    71  63  75 SW17      29.90F
EL PASO        PTCLDY    76  17  11 W20G25    30.02R
$$

...MARINE OBSERVATIONS...

STATION/POSITION TIME  SKY/WX   TEMP    WIND        PRES    VSBY  WAVE   SWELL
                                AIR SEA DIR/SP/G                  HT/PER HT/PER
                 (UTC)          (F)     (DEG/KT/KT) (MB)    (MI)  (FT/S) (FT/S)
PORT ARANSAS     0900            81 81  140/ 14/ 15 1013.9F
BUOY 90 E PORT A 0850            81 81  140/ 16/ 19 1014.1F         5/ 6
BUOY 45 SE BAFFI 0850            81 80  150/ 14/ 16 1012.8S         4/ 7   2/ 7
BUOY 200 E PT IS 0850                                 N/A           5/ 6
BUOY 15 E GALVES 0850            80 80  150/ 16/ 17 1014.7S         4/ 5
$$




USA.gov is the U.S. government's official web portal to all federal, state and local government web resources and services.